Location: Dittelbrunn
(50.0738°N, 10.2196°E)
Time: 23:01:39
(UTC+00:00)

Cosmos 1766 - Pass Details

Date: 18 September 2020
Orbit: 521 x 544 km, 82.5° (Epoch: 31 October)

Event Time Altitude Azimuth Distance (km) Brightness Sun altitude
Exits shadow 19:34:17 37° 50° (NE) 842 4.0 -20.6°
Drops below altitude 10° 19:37:04 10° 20° (NNE) 1,804 6.0 -21.0°
Sets 19:39:17 0° 15° (NNE) 2,704 7.0 -21.3°
